Location: Orange
(33.2833°S, 149.1000°E)
Time: 21:27:02
(UTC+11:00)

Envisat - Pass Details

Date: 05 December 2021
Orbit: 764 x 766 km, 98.2° (Epoch: 18 January)

Event Time Altitude Azimuth Distance (km) Brightness Sun altitude
Rises 04:35:56 0° 37° (NE) 3,219 6.2 -13.3°
Reaches altitude 10° 04:38:24 10° 45° (NE) 2,301 5.6 -12.9°
Maximum altitude 04:42:56 34° 109° (ESE) 1,255 4.8 -12.1°
Drops below altitude 10° 04:47:31 10° 172° (S) 2,327 6.2 -11.4°
Sets 04:50:01 0° 181° (S) 3,261 6.8 -10.9°
